Details for Virgin Australia at YMML




Go Back


Latest METAR
Local Time

YMML 160930Z 29006KT CAVOK 09/01 Q1014 NOSIG
16/08/2018, 19:48:58

Description
Results
Virgin Australia Logo
Number of Pilots based at YMML
0 Pilots Based here
Number of Virgin Australia Flights Departed from YMML
4 Flights Departed
Number of Virgin Australia Flights Arrived at YMML
4 Flights Arrived
Number of Virgin Australia Schedules Departing from YMML
174 Schedules
Number of Virgin Australia Schedules Arriving at YMML
163 Schedules
Number of Virgin Australia Schedules Departing from YMML availible today
101 Schedules Today
Number of Virgin Australia Schedules Arriving at YMML availible today
97 Schedules Today
Average Landing Rate at YMML
-190 fpm
Virgin Australia Average Landing Rate at YMML
-63 fpm
Total Fuel Purchased at YMML by Virgin Australia
14,286.35 kgs / 31,495.69 lbs

Pilots Based at YMML


Pilot ID
Pilot Name
Pilot Rank
No. of Flights
No. of Flying Hours
There are no pilots assigned to this hub!   Will you be the first?
Content